Regional Weather Roundup
Issued by NWS

Home | Current Version | Previous Version | Text Only | Print | Product List | Glossary On
Versions: 1 2 3 4 5 6 7 8 9 10 11 12 13 14 15 16 17 18 19 20 21 22 23 24 25 26 27 28 29 30 31 32 33 34 35 36 37 38 39 40 41 42 43 44 45 46 47 48 49 50
000
ASUS44 KFWD 272203
RWRTX
NORTH TEXAS HOURLY WEATHER ROUNDUP
NATIONAL WEATHER SERVICE FORT WORTH TX
500 PM CDT FRI MAY 27 2016

NOTE: "FAIR" INDICATES FEW OR NO CLOUDS BELOW 12,000 FEET WITH NO
SIGNIFICANT WEATHER AND/OR OBSTRUCTIONS TO VISIBILITY.

TXZ118-119-272300-
DALLAS/FORT WORTH METROPLEX

CITY           SKY/WX    TMP DP  RH WIND       PRES   REMARKS
DFW AIRPORT    CLOUDY    81  63  54 S14       29.72S
DALLAS LOVE    CLOUDY    81  62  52 S13       29.73S
FTW MEACHAM    CLOUDY    83  64  52 S14       29.71F
DAL-EXECUTIVE  CLOUDY    78  63  59 SE12      29.72F
FTW-ALLIANCE   CLOUDY    81  64  56 S13       29.71F
FTW-NAS-JRB    MOSUNNY   81  65  58 S16       29.72F
FTW-SPINKS     MOSUNNY   81  63  54 S13G18    29.75S
ARLINGTON        N/A    N/A N/A N/A MISG      29.73S
ADDISON        SUNNY     84  50  30 S12       29.73S
MESQUITE       SUNNY     75  64  69 SE12      29.74F
LANCASTER      PTSUNNY   76  61  58 SE13G18   29.75F
$$

TXZ091>094-102>105-117-120-121-131>134-272300-
NORTH CENTRAL TEXAS

CITY           SKY/WX    TMP DP  RH WIND       PRES   REMARKS
SHRMAN/DENISON CLOUDY    75  60  58 S15       29.74S
BRIDGEPORT     MOSUNNY   81  69  66 S13       29.73F
DECATUR        MOSUNNY   80  64  58 S17       29.72F
DENTON         CLOUDY    81  64  56 S15       29.72S
MCKINNEY       CLOUDY    77  63  61 S14       29.73S
ROCKWALL       CLOUDY    75  65  72 SE14      29.74R
TERRELL        CLOUDY    73  63  70 S9        29.75S
WAXAHACHIE     CLOUDY    77  64  63 SE10      29.75S
CLEBURNE       SUNNY     82  68  61 SE12G18   29.75S
GRANBURY       SUNNY     82  65  56 S12       29.74F
$$

TXZ083>090-098>101-113>116-127>130-139>142-154-155-272300-
WESTERN NORTH TEXAS

CITY           SKY/WX    TMP DP  RH WIND       PRES   REMARKS
WICHITA FALLS  MOSUNNY   83  63  50 S17       29.64F
WF-KICKAPOO    SUNNY     88  62  40 S10G23    29.65F
VERNON         SUNNY     90  34  13 W9        29.66F
ABILENE        SUNNY     87  43  21 W13       29.71F
MINERAL WELLS  MOSUNNY   81  67  62 S14G21    29.71F
STEPHENVILLE   PTSUNNY   77  65  66 S8        29.77F
COMANCHE       SUNNY     79  69  70 SE8       29.75S
BROWNWOOD      SUNNY     79  68  69 SE13      29.74S
COLEMAN        SUNNY     82  66  59 S7        29.74S
$$

TXZ143>147-156>162-174-175-272300-
CENTRAL TEXAS

CITY           SKY/WX    TMP DP  RH WIND       PRES   REMARKS
WACO           CLOUDY    80  61  52 E12       29.74S
WACO-TSTC        N/A     81  63  54 E7        29.74F
WACO-MCGREGOR  CLOUDY   N/A N/A N/A E14         N/A
HILLSBORO      CLOUDY    78  61  54 SE13      29.74S
CORSICANA      CLOUDY    71  62  73 SE10      29.75S
MEXIA          CLOUDY    68  64  85 SE9G16    29.74S
HEARNE         CLOUDY    67  64  90 E9        29.74F
CAMERON        CLOUDY    73  65  76 E10G18    29.74F
TEMPLE         MOSUNNY   76  67  73 E15       29.76S
KILLEEN        SUNNY     76  66  72 E15       29.74F
KILLEEN-SKYLRK SUNNY     78  67  68 E15       29.75F
FORT HOOD      SUNNY     76  66  69 SE10      29.73F
HAMILTON       SUNNY     79  64  60 SE13      29.76F
LAMPASAS       SUNNY     76  67  75 E12       29.74F
$$

TXZ095>097-106>112-122>126-135>138-148>153-164>167-272300-
EAST TEXAS

CITY           SKY/WX    TMP DP  RH WIND       PRES   REMARKS
PARIS          CLOUDY    70  57  64 S12       29.76F
SULPHUR SPRNGS CLOUDY    70  64  81 S3        29.76F
MOUNT PLEASANT CLOUDY    68  66  95 SE6       29.75F
MINEOLA        CLOUDY    66  64  94 SE6       29.74F
TYLER          CLOUDY    68  63  84 SE14      29.73F
LONGVIEW       CLOUDY    66  65  96 E13       29.73F THUNDER
ATHENS         CLOUDY    64  64 100 SE7       29.71F
PALESTINE      CLOUDY    68  65  90 E13G21    29.74F
JACKSONVILLE   CLOUDY    65  65 100 E7        29.77F
CENTER         RAIN      68  67  96 SE8G18    29.83R
NACOGDOCHES    CLOUDY    66  64  94 SE14G21   29.75F THUNDER
LUFKIN         TSTM      67  66  97 E24G32    29.75S
$$

SUPPLEMENTAL OBSERVATIONS (CENTRAL)

CITY           SKY/WX    TMP DP  RH WIND       PRES   REMARKS
$$

SUPPLEMENTAL OBSERVATIONS (WEST)

CITY           SKY/WX    TMP DP  RH WIND       PRES   REMARKS
$$

SUPPLEMENTAL OBSERVATIONS (EAST)

CITY           SKY/WX    TMP DP  RH WIND       PRES   REMARKS
$$

SUPPLEMENTAL OBSERVATIONS ARE A COLLECTION OF AUTOMATED INSTRUMENTS
THAT ARE MAINTAINED BY A VARIETY OF FEDERAL AND STATE AGENCIES.
CERTAIN ELEMENTS...SUCH AS HUMIDITY VALUES AND SUSTAINED WIND
SPEEDS...MAY BE APPROXIMATED.





USA.gov is the U.S. government's official web portal to all federal, state and local government web resources and services.